DW1065 Weather Reports


Display with metric or nautical units.
time (UTC)temp
F
wind
direction
speed
MPH
gust
MPH
rain 1hr
in
rain 24hr
in
rain mn
in
humidity
%
barometer
mb
20260509115003 63 200 5.0 15.0 0.00 0.00 0.00 37 1017.2
20260509114005 62 212 4.0 12.0 0.00 0.00 0.00 37 1017.1
20260509113504 62 179 7.0 13.0 0.00 0.00 0.00 37 1017.4
20260509113004 62 195 7.0 13.0 0.00 0.00 0.00 37 1017.3
20260509112004 62 177 6.0 13.0 0.00 0.00 0.00 37 1017.3
20260509111503 62 213 4.0 13.0 0.00 0.00 0.00 39 1017.4
20260509111005 63 181 6.0 13.0 0.00 0.00 0.00 38 1017.4
20260509110504 63 194 6.0 13.0 0.00 0.00 0.00 39 1017.5
20260509110004 63 197 9.0 13.0 0.00 0.00 0.00 37 1017.5
20260509105003 62 199 2.0 12.0 0.00 0.00 0.00 39 1017.6
20260509104504 61 219 5.0 12.0 0.00 0.00 0.00 41 1017.7
20260509104004 61 204 7.0 12.0 0.00 0.00 0.00 40 1017.8
20260509103503 61 210 5.0 14.0 0.00 0.00 0.00 42 1017.8
20260509103004 61 223 7.0 14.0 0.00 0.00 0.00 41 1017.8
20260509102504 61 203 6.0 12.0 0.00 0.00 0.00 43 1017.8
20260509102006 61 208 4.0 13.0 0.00 0.00 0.00 43 1017.8
20260509101006 61 187 5.0 12.0 0.00 0.00 0.00 43 1017.8
20260509100505 61 197 5.0 10.0 0.00 0.00 0.00 41 1017.8
20260509100006 61 191 6.0 12.0 0.00 0.00 0.00 43 1017.9
20260509095506 61 200 6.0 12.0 0.00 0.00 0.00 43 1018.0
20260509095005 61 177 5.0 12.0 0.00 0.00 0.00 45 1018.0
20260509094505 61 196 6.0 12.0 0.00 0.00 0.00 44 1018.0
20260509093005 61 250 3.0 9.0 0.00 0.00 0.00 48 1018.1
20260509092505 60 207 3.0 9.0 0.00 0.00 0.00 48 1018.1
20260509092005 60 239 2.0 9.0 0.00 0.00 0.00 48 1018.2
20260509091505 60 229 3.0 9.0 0.00 0.00 0.00 48 1018.3
20260509091006 60 181 4.0 9.0 0.00 0.00 0.00 48 1018.3
20260509090005 60 234 2.0 9.0 0.00 0.00 0.00 49 1018.3
20260509085505 60 225 5.0 12.0 0.00 0.00 0.00 49 1018.3
20260509085005 59 225 5.0 12.0 0.00 0.00 0.00 50 1018.3
20260509084005 59 213 5.0 10.0 0.00 0.00 0.00 51 1018.4
20260509083505 59 203 5.0 10.0 0.00 0.00 0.00 52 1018.3
20260509083005 59 221 2.0 10.0 0.00 0.00 0.00 55 1018.3
20260509082505 59 221 5.0 10.0 0.00 0.00 0.00 55 1018.3
20260509082005 59 165 3.0 8.0 0.00 0.00 0.00 56 1018.4
20260509081505 59 191 5.0 8.0 0.00 0.00 0.00 56 1018.4
20260509080505 58 192 3.0 7.0 0.00 0.00 0.00 60 1018.4
20260509075505 57 192 3.0 8.0 0.00 0.00 0.00 61 1018.4
20260509075005 57 203 3.0 7.0 0.00 0.00 0.00 62 1018.4
20260509074505 57 193 3.0 7.0 0.00 0.00 0.00 62 1018.4
20260509074007 57 182 5.0 7.0 0.00 0.00 0.00 63 1018.4
20260509073505 56 220 3.0 6.0 0.00 0.00 0.00 64 1018.5
20260509073005 56 201 3.0 6.0 0.00 0.00 0.00 64 1018.5
20260509072505 56 164 2.0 6.0 0.00 0.00 0.00 64 1018.6
20260509072005 56 197 3.0 6.0 0.00 0.00 0.00 64 1018.6
20260509071005 55 168 3.0 6.0 0.00 0.00 0.00 65 1018.6
20260509070505 55 204 2.0 7.0 0.00 0.00 0.00 66 1018.5
20260509070005 55 194 2.0 8.0 0.00 0.00 0.00 65 1018.6
20260509065506 55 179 3.0 8.0 0.00 0.00 0.00 65 1018.6
20260509065005 55 212 3.0 8.0 0.00 0.00 0.00 65 1018.5
20260509064505 55 183 4.0 8.0 0.00 0.00 0.00 65 1018.6
20260509064005 54 205 3.0 7.0 0.00 0.00 0.00 65 1018.7
20260509063505 54 177 2.0 6.0 0.00 0.00 0.00 66 1018.6
20260509062506 54 193 2.0 7.0 0.00 0.00 0.00 65 1018.6
20260509061505 53 171 2.0 6.0 0.00 0.00 0.00 65 1018.6
20260509061006 53 179 2.0 7.0 0.00 0.00 0.00 65 1018.6
20260509060505 53 142 2.0 7.0 0.00 0.00 0.00 67 1018.6
20260509060005 52 169 3.0 7.0 0.00 0.00 0.00 66 1018.6
20260509055505 52 207 2.0 3.0 0.00 0.00 0.00 67 1018.6
20260509054006 51 179 1.0 3.0 0.00 0.00 0.00 69 1018.6
20260509053505 50 178 1.0 6.0 0.00 0.00 0.00 69 1018.6
20260509053005 50 166 2.0 7.0 0.00 0.00 0.00 69 1018.7
20260509052506 49 162 4.0 7.0 0.00 0.00 0.00 70 1018.8
20260509051505 48 166 2.0 6.0 0.00 0.00 0.00 72 1018.8
20260509051005 47 154 2.0 5.0 0.00 0.00 0.00 74 1018.8
20260509050505 47 149 2.0 5.0 0.00 0.00 0.00 75 1018.8
20260509050006 46 172 1.0 5.0 0.00 0.00 0.00 77 1018.8
20260509045505 45 174 2.0 3.0 0.00 0.00 0.00 78 1018.8
20260509045005 44 149 0.0 3.0 0.00 0.00 0.00 79 1018.8
20260509044505 44 149 1.0 2.0 0.00 0.00 0.00 80 1018.7
20260509044007 43 147 1.0 3.0 0.00 0.00 0.00 81 1018.7
20260509043505 43 147 1.0 3.0 0.00 0.00 0.00 82 1018.7
20260509042505 42 144 0.0 1.0 0.00 0.00 0.00 83 1018.8
20260509041505 41 143 0.0 2.0 0.00 0.00 0.00 82 1018.9
20260509041006 41 143 0.0 2.0 0.00 0.00 0.00 82 1018.9
20260509040505 41 144 1.0 2.0 0.00 0.00 0.00 81 1018.9
20260509040005 41 145 0.0 2.0 0.00 0.00 0.00 81 1018.9
20260509035506 41 146 0.0 1.0 0.00 0.00 0.00 80 1018.9
20260509035005 41 144 0.0 1.0 0.00 0.00 0.00 80 1019.0
20260509034505 41 146 0.0 1.0 0.00 0.00 0.00 80 1019.1
20260509034007 41 143 0.0 1.0 0.00 0.00 0.00 80 1019.1
20260509033005 41 144 0.0 2.0 0.00 0.00 0.00 80 1019.1
20260509032504 41 145 0.0 2.0 0.00 0.00 0.00 80 1019.2
20260509032005 41 145 1.0 3.0 0.00 0.00 0.00 80 1019.2
20260509031005 42 144 1.0 2.0 0.00 0.00 0.00 79 1019.1
20260509030006 42 144 0.0 1.0 0.00 0.00 0.00 78 1019.2
20260509025506 42 144 0.0 0.0 0.00 0.00 0.00 77 1019.2
20260509025004 42 145 0.0 0.0 0.00 0.00 0.00 77 1019.2
20260509024505 42 145 0.0 1.0 0.00 0.00 0.00 76 1019.2
20260509024006 43 146 0.0 1.0 0.00 0.00 0.00 76 1019.2
20260509023504 43 144 0.0 1.0 0.00 0.00 0.00 75 1019.3
20260509023005 43 144 0.0 0.0 0.00 0.00 0.00 74 1019.3
20260509022505 44 144 0.0 0.0 0.00 0.00 0.00 74 1019.4
20260509021505 45 144 0.0 0.0 0.00 0.00 0.00 72 1019.4
20260509021007 45 144 0.0 0.0 0.00 0.00 0.00 72 1019.4
20260509020504 45 144 0.0 0.0 0.00 0.00 0.00 72 1019.4
20260509015505 45 144 0.0 0.0 0.00 0.00 0.00 72 1019.5
20260509015005 46 146 0.0 1.0 0.00 0.00 0.00 72 1019.5
20260509014505 46 146 0.0 2.0 0.00 0.00 0.00 72 1019.5
20260509013505 46 145 1.0 3.0 0.00 0.00 0.00 71 1019.5
20260509013006 46 145 2.0 3.0 0.00 0.00 0.00 71 1019.5
20260509012507 46 140 1.0 3.0 0.00 0.00 0.00 70 1019.5
20260509012006 46 76 1.0 2.0 0.00 0.00 0.00 70 1019.4
20260509011505 46 78 0.0 1.0 0.00 0.00 0.00 70 1019.4
20260509011006 46 77 0.0 0.0 0.00 0.00 0.00 69 1019.4
20260509010505 47 78 0.0 3.0 0.00 0.00 0.00 70 1019.4
20260509010005 47 77 1.0 3.0 0.00 0.00 0.00 69 1019.4
20260509005506 47 116 1.0 3.0 0.00 0.00 0.00 68 1019.4
20260509005005 47 153 1.0 5.0 0.00 0.00 0.00 68 1019.4
20260509004505 47 135 1.0 5.0 0.00 0.00 0.00 68 1019.3
20260509003505 47 144 1.0 3.0 0.00 0.00 0.00 68 1019.3
20260509002505 47 142 1.0 2.0 0.00 0.00 0.00 68 1019.3
20260509002006 47 146 1.0 2.0 0.00 0.00 0.00 68 1019.3
20260509001505 47 148 1.0 2.0 0.00 0.00 0.00 68 1019.4
20260509001005 47 159 1.0 2.0 0.00 0.00 0.00 68 1019.4
20260509000006 47 160 0.0 1.0 0.00 0.00 0.00 68 1019.4
20260508235005 47 157 1.0 2.0 0.00 0.00 0.00 68 1019.5
20260508234505 47 158 1.0 2.0 0.00 0.00 0.00 68 1019.5
20260508234006 47 159 1.0 2.0 0.00 0.00 0.00 68 1019.5
20260508233506 47 159 0.0 2.0 0.00 0.00 0.00 68 1019.4
20260508233005 47 159 0.0 2.0 0.00 0.00 0.00 68 1019.4
20260508232505 47 157 0.0 2.0 0.00 0.00 0.00 68 1019.4
20260508232006 47 160 1.0 2.0 0.00 0.00 0.00 68 1019.4
20260508231504 47 160 1.0 3.0 0.00 0.00 0.00 68 1019.4
20260508231005 47 158 1.0 3.0 0.00 0.00 0.00 68 1019.5
20260508230505 47 159 1.0 2.0 0.00 0.00 0.00 68 1019.5
20260508230005 47 159 0.0 3.0 0.00 0.00 0.00 68 1019.5
20260508225505 47 160 0.0 3.0 0.00 0.00 0.00 68 1019.5
20260508225005 47 158 1.0 3.0 0.00 0.00 0.00 68 1019.5
20260508224505 47 162 1.0 2.0 0.00 0.00 0.00 69 1019.5
20260508224006 47 160 0.0 0.0 0.00 0.00 0.00 69 1019.5
20260508223005 47 158 0.0 0.0 0.00 0.00 0.00 69 1019.5
20260508222005 47 159 0.0 0.0 0.00 0.00 0.00 69 1019.5
20260508221504 47 158 0.0 0.0 0.00 0.00 0.00 69 1019.5
20260508221005 47 159 0.0 1.0 0.00 0.00 0.00 69 1019.5
20260508220505 47 160 0.0 2.0 0.00 0.00 0.00 69 1019.5
20260508220005 47 157 1.0 2.0 0.00 0.00 0.00 68 1019.6
20260508215504 47 158 1.0 2.0 0.00 0.00 0.00 68 1019.6
20260508215005 47 158 0.0 1.0 0.00 0.00 0.00 67 1019.6
20260508214005 48 158 0.0 1.0 0.00 0.00 0.00 65 1019.6
20260508213506 48 159 0.0 1.0 0.00 0.00 0.00 67 1019.7
20260508213005 48 159 1.0 1.0 0.00 0.00 0.00 65 1019.7
20260508212505 49 158 0.0 0.0 0.00 0.00 0.00 65 1019.6
20260508212006 49 157 0.0 0.0 0.00 0.00 0.00 64 1019.6
20260508211505 49 159 0.0 1.0 0.00 0.00 0.00 62 1019.6
20260508210506 49 160 0.0 2.0 0.00 0.00 0.00 61 1019.5
20260508205505 50 159 1.0 5.0 0.00 0.00 0.00 61 1019.4
20260508205005 50 160 2.0 5.0 0.00 0.00 0.00 60 1019.5
20260508204505 50 170 1.0 3.0 0.00 0.00 0.00 60 1019.5
20260508204006 50 167 1.0 3.0 0.00 0.00 0.00 60 1019.5
20260508203505 50 172 1.0 3.0 0.00 0.00 0.00 59 1019.3
20260508203005 51 175 1.0 3.0 0.00 0.00 0.00 59 1019.3
20260508202005 51 179 1.0 3.0 0.00 0.00 0.00 59 1019.3
20260508201005 51 182 1.0 2.0 0.00 0.00 0.00 58 1019.3
20260508200505 52 185 1.0 2.0 0.00 0.00 0.00 57 1019.4
20260508195005 52 181 1.0 3.0 0.00 0.00 0.00 56 1019.1
20260508194504 53 184 1.0 3.0 0.00 0.00 0.00 55 1019.2
20260508194005 53 185 0.0 3.0 0.00 0.00 0.00 55 1019.2
20260508193505 53 186 1.0 3.0 0.00 0.00 0.00 54 1019.1
20260508193009 53 147 1.0 3.0 0.00 0.00 0.00 54 1019.1
20260508191005 54 202 1.0 2.0 0.00 0.00 0.00 52 1019.0
20260508190504 54 202 0.0 5.0 0.00 0.00 0.00 52 1018.9
20260508190005 55 203 0.0 5.0 0.00 0.00 0.00 52 1018.9
20260508185505 55 201 2.0 5.0 0.00 0.00 0.00 51 1018.9
20260508185005 55 203 1.0 3.0 0.00 0.00 0.00 51 1018.8
20260508184505 55 208 2.0 3.0 0.00 0.00 0.00 50 1019.0
20260508184005 55 206 2.0 3.0 0.00 0.00 0.00 50 1019.0
20260508183505 55 189 2.0 3.0 0.00 0.00 0.00 50 1018.9
20260508183006 56 186 1.0 3.0 0.00 0.00 0.00 49 1018.9
20260508182005 56 219 0.0 5.0 0.00 0.00 0.00 48 1018.9
20260508181005 56 210 2.0 5.0 0.00 0.00 0.00 47 1018.8
20260508180505 56 207 2.0 5.0 0.00 0.00 0.00 47 1018.8
20260508180006 57 207 2.0 3.0 0.00 0.00 0.00 46 1018.7
20260508175505 57 234 1.0 3.0 0.00 0.00 0.00 46 1018.7
20260508175006 57 239 1.0 7.0 0.00 0.00 0.00 45 1018.7
20260508174506 57 228 2.0 7.0 0.00 0.00 0.00 44 1018.6
20260508174005 57 198 2.0 6.0 0.00 0.00 0.00 44 1018.6
20260508173505 58 221 3.0 7.0 0.00 0.00 0.00 43 1018.6
20260508173005 58 220 1.0 7.0 0.00 0.00 0.00 44 1018.6
20260508172505 58 229 1.0 6.0 0.00 0.00 0.00 43 1018.5
20260508172005 58 216 2.0 8.0 0.00 0.00 0.00 42 1018.5
20260508171005 59 191 3.0 9.0 0.00 0.00 0.00 40 1018.5
20260508170505 59 198 4.0 9.0 0.00 0.00 0.00 41 1018.6
20260508170005 59 230 3.0 7.0 0.00 0.00 0.00 41 1018.5
20260508165504 60 219 1.0 9.0 0.00 0.00 0.00 41 1018.5
20260508164506 60 254 3.0 10.0 0.00 0.00 0.00 39 1018.5
20260508164005 60 233 4.0 10.0 0.00 0.00 0.00 39 1018.5
20260508163505 60 209 2.0 9.0 0.00 0.00 0.00 41 1018.4
20260508163005 60 263 2.0 6.0 0.00 0.00 0.00 40 1018.4
20260508162505 60 248 3.0 9.0 0.00 0.00 0.00 40 1018.4
20260508162005 60 211 2.0 10.0 0.00 0.00 0.00 40 1018.5
20260508161504 61 248 2.0 10.0 0.00 0.00 0.00 39 1018.4
20260508161005 61 226 3.0 10.0 0.00 0.00 0.00 39 1018.5
20260508160505 61 217 4.0 8.0 0.00 0.00 0.00 39 1018.4
20260508160007 61 205 3.0 8.0 0.00 0.00 0.00 40 1018.4
20260508155505 62 272 1.0 8.0 0.00 0.00 0.00 39 1018.4
20260508155005 62 227 4.0 8.0 0.00 0.00 0.00 38 1018.4
20260508154005 62 218 4.0 10.0 0.00 0.00 0.00 39 1018.5
20260508153505 62 267 3.0 10.0 0.00 0.00 0.00 38 1018.5
20260508153006 62 216 3.0 9.0 0.00 0.00 0.00 38 1018.5
20260508152505 62 201 4.0 9.0 0.00 0.00 0.00 38 1018.5
20260508152005 62 243 3.0 8.0 0.00 0.00 0.00 38 1018.5
20260508151506 63 232 4.0 8.0 0.00 0.00 0.00 38 1018.6
20260508151005 63 226 4.0 8.0 0.00 0.00 0.00 38 1018.6
20260508150505 63 242 3.0 10.0 0.00 0.00 0.00 38 1018.5
20260508150006 63 199 5.0 10.0 0.00 0.00 0.00 37 1018.6
20260508145505 63 249 5.0 9.0 0.00 0.00 0.00 38 1018.7
20260508145005 63 227 3.0 12.0 0.00 0.00 0.00 38 1018.6
20260508144505 63 232 3.0 12.0 0.00 0.00 0.00 38 1018.6
20260508144005 63 238 2.0 10.0 0.00 0.00 0.00 38 1018.6
20260508143505 63 220 5.0 13.0 0.00 0.00 0.00 39 1018.5
20260508143005 63 249 4.0 13.0 0.00 0.00 0.00 37 1018.6
20260508142505 63 249 4.0 8.0 0.00 0.00 0.00 38 1018.6
20260508142005 63 231 4.0 8.0 0.00 0.00 0.00 39 1018.6
20260508141506 63 188 4.0 10.0 0.00 0.00 0.00 39 1018.6
20260508141005 63 211 5.0 10.0 0.00 0.00 0.00 37 1018.6
20260508140504 64 201 5.0 14.0 0.00 0.00 0.00 38 1018.7
20260508140005 64 218 4.0 14.0 0.00 0.00 0.00 39 1018.7
20260508135505 64 192 4.0 14.0 0.00 0.00 0.00 41 1018.6
20260508135005 64 227 3.0 8.0 0.00 0.00 0.00 43 1018.7
20260508134506 63 269 2.0 7.0 0.00 0.00 0.00 41 1018.8
20260508134005 63 272 3.0 9.0 0.00 0.00 0.00 41 1018.8
20260508133505 63 229 4.0 10.0 0.00 0.00 0.00 42 1018.8
20260508132504 63 200 6.0 12.0 0.00 0.00 0.00 39 1018.8
20260508131505 63 191 3.0 12.0 0.00 0.00 0.00 43 1018.8
20260508130504 63 206 6.0 12.0 0.00 0.00 0.00 40 1018.9
20260508130007 63 247 3.0 7.0 0.00 0.00 0.00 42 1018.9
20260508125504 63 255 3.0 8.0 0.00 0.00 0.00 41 1018.9
20260508124506 63 214 3.0 10.0 0.00 0.00 0.00 42 1018.8
20260508124004 62 253 3.0 10.0 0.00 0.00 0.00 42 1018.8
20260508123505 62 269 2.0 12.0 0.00 0.00 0.00 41 1018.8
20260508123007 62 204 3.0 12.0 0.00 0.00 0.00 41 1018.9
20260508122505 62 246 4.0 9.0 0.00 0.00 0.00 43 1018.9
20260508122006 62 214 3.0 10.0 0.00 0.00 0.00 41 1018.9
20260508121506 62 179 5.0 10.0 0.00 0.00 0.00 43 1018.8
20260508120505 62 200 4.0 8.0 0.00 0.00 0.00 42 1018.8
20260508120005 62 215 2.0 7.0 0.00 0.00 0.00 42 1018.8